Weather History for Piney Island, NC

Change the Weather History Date:

Thursday, August 30, 2012

  Actual Average (KMRH) Record (KMRH)
Temperature  
Mean Temperature 82 °F -  
Max Temperature 88 °F 86 °F 92 °F (1993)
Min Temperature 77 °F 69 °F 57 °F (1982)
Cooling Degree Days 18    
Growing Degree Days 32 (Base 50)    
Moisture  
Dew Point 70 °F    
Average Humidity 67    
Maximum Humidity 84    
Minimum Humidity 51    
Precipitation  
Precipitation 0.00 in - - ()
Sea Level Pressure  
Sea Level Pressure 30.11 in    
Wind  
Wind Speed 6 mph (ESE)    
Max Wind Speed 10 mph    
Max Gust Speed 16 mph    
Visibility 9 miles    
Events      
Averages and records for this station are not official NWS values.
T = Trace of Precipitation, MM = Missing Value Source: NWS Daily Summary

Daily Weather History Graph

Daily Weather History Graph

Search for Another Location

Airport:

Trip Planner

Search our weather history database for the weather conditions in past years. The results will help you decide how hot, cold, wet, or windy it might be!

Date:

Astronomy

Aug. 30, 2012 Rise Set
Actual Time 6:37 AM EDT 7:34 PM EDT
Civil Twilight 6:11 AM EDT 8:00 PM EDT
Nautical Twilight 5:40 AM EDT 8:31 PM EDT
Astronomical Twilight 5:08 AM EDT 9:02 PM EDT
Moon 6:49 PM EDT (8/30) 5:36 AM EDT (8/30)
Length of Visible Light 13h 49m
Length of Day
12h 57m
Waxing Gibbous, 99% of the Moon is Illuminated
Aug 30
Waxing Gibbous
Aug 31
Full
Sep 8
Last Quarter
Sep 15
New
Sep 22
First Quarter

Hourly Weather History & Observations

Time (EDT) Temp. Heat Index Dew Point Humidity Pressure Visibility Wind Dir Wind Speed Gust Speed Precip Events Conditions
12:56 AM 81.0 °F 84.4 °F 70.0 °F 69% 30.03 in 9.0 mi East 3.5 mph - N/A   Overcast
1:56 AM 81.0 °F 84.4 °F 70.0 °F 69% 30.03 in 9.0 mi ENE 3.5 mph - N/A   Partly Cloudy
2:56 AM 81.0 °F 84.1 °F 69.1 °F 67% 30.02 in 9.0 mi ENE 5.8 mph - N/A   Clear
3:56 AM 81.0 °F 84.1 °F 69.1 °F 67% 30.02 in 9.0 mi East 5.8 mph - N/A   Clear
4:56 AM 81.0 °F 84.4 °F 70.0 °F 69% 30.02 in 9.0 mi East 5.8 mph - N/A   Overcast
5:56 AM 81.0 °F 84.1 °F 69.1 °F 67% 30.04 in 10.0 mi East 8.1 mph - N/A   Overcast
6:56 AM 81.0 °F 83.3 °F 66.9 °F 62% 30.06 in 10.0 mi ENE 6.9 mph - N/A   Overcast
7:56 AM 82.0 °F 84.5 °F 66.9 °F 60% 30.08 in 10.0 mi East 8.1 mph - N/A   Mostly Cloudy
8:56 AM 82.0 °F 86.3 °F 71.1 °F 69% 30.09 in 10.0 mi East 6.9 mph - N/A   Mostly Cloudy
9:56 AM 82.9 °F 88.8 °F 73.0 °F 72% 30.12 in 9.0 mi East 8.1 mph - N/A   Mostly Cloudy
10:56 AM 84.0 °F 90.2 °F 73.0 °F 69% 30.14 in 10.0 mi East 10.4 mph - N/A   Clear
11:56 AM 84.0 °F 91.2 °F 73.9 °F 72% 30.14 in 9.0 mi ENE 10.4 mph - N/A   Clear
12:56 PM 86.0 °F 90.7 °F 70.0 °F 59% 30.15 in 10.0 mi East 9.2 mph - N/A   Scattered Clouds
1:56 PM 86.0 °F 88.8 °F 66.9 °F 53% 30.15 in 10.0 mi SE 8.1 mph - N/A   Scattered Clouds
2:56 PM 87.1 °F 90.6 °F 68.0 °F 53% 30.15 in 10.0 mi ESE 8.1 mph - N/A   Partly Cloudy
3:56 PM 87.1 °F 89.9 °F 66.9 °F 51% 30.14 in 10.0 mi South 6.9 mph 16.1 mph N/A   Clear
4:56 PM 88.0 °F 91.4 °F 68.0 °F 51% 30.14 in 10.0 mi SSE 9.2 mph - N/A   Partly Cloudy
5:56 PM 84.9 °F 89.4 °F 70.0 °F 61% 30.14 in 10.0 mi SSE 9.2 mph - N/A   Clear
6:56 PM 84.0 °F 89.0 °F 71.1 °F 65% 30.14 in 10.0 mi South 4.6 mph - N/A   Clear
7:56 PM 80.1 °F 83.8 °F 72.0 °F 76% 30.15 in 9.0 mi SSW 4.6 mph - N/A   Clear
8:56 PM 79.0 °F - 72.0 °F 79% 30.16 in 9.0 mi SSW 5.8 mph - N/A   Clear
9:56 PM 78.1 °F - 72.0 °F 81% 30.17 in 8.0 mi SSW 4.6 mph - N/A   Clear
10:56 PM 77.0 °F - 72.0 °F 84% 30.18 in 8.0 mi SSW 3.5 mph - N/A   Clear
11:56 PM 77.0 °F - 72.0 °F 84% 30.18 in 8.0 mi SW 3.5 mph - N/A   Clear